Regional Weather Roundup
Issued by NWS

Home | Current Version | Previous Version | Graphics & Text | Print | Product List | Glossary On
Versions: 1 2 3 4 5 6 7 8 9 10 11 12 13 14 15 16 17 18 19 20 21 22 23 24 25 26 27 28 29 30 31 32 33 34 35 36 37 38 39 40 41 42 43 44 45 46 47 48 49 50
000
ASUS43 KFSD 290510
RWRSD

WEATHER ROUNDUP FOR SOUTH DAKOTA
NATIONAL WEATHER SERVICE SIOUX FALLS SD
1200 AM CDT TUE JUL 29 2014

NOTE: "FAIR" INDICATES FEW OR NO CLOUDS BELOW 12,000 FEET WITH NO
SIGNIFICANT WEATHER AND/OR OBSTRUCTIONS TO VISIBILITY.


SDZ001>005-009-010-012>017-290600-
NORTHWEST AND NORTH CENTRAL SOUTH DAKOTA

CITY           SKY/WX    TMP DP  RH WIND       PRES   REMARKS
BUFFALO          N/A     63  52  67 E10       30.20F
FAITH            N/A     63  52  67 SE13      30.26S
MOBRIDGE       CLEAR     58  51  78 CALM      30.21F
$$

SDZ012>016-024>037-041>051-057-063-072>074-290600-
SOUTHWEST AND SOUTH CENTRAL SOUTH DAKOTA

CITY           SKY/WX    TMP DP  RH WIND       PRES   REMARKS
RAPID CTY ARPT CLEAR     61  51  70 SE3       30.28R
PIERRE         CLEAR     60  52  74 NE6       30.22S
CUSTER         CLEAR     60  49  66 NE7       30.38S
ELLSWORTH AFB  CLEAR     64  52  65 SW3       30.27S
PHILIP         CLEAR     59  49  69 E8        30.24S
PINE RIDGE     CLEAR     63  53  70 E7        30.26R
WINNER         FAIR      62  50  64 SE6       30.25R
$$

SDZ004>011-016>023-039-040-290600-
NORTHEAST SOUTH DAKOTA

CITY           SKY/WX    TMP DP  RH WIND       PRES   REMARKS
ABERDEEN       CLEAR     51  50  96 SW3       30.23S
WATERTOWN      CLEAR     57  52  83 CALM      30.23S
SISSETON         N/A     54  53  97 NW3       30.20S
$$

SDZ017-020-022-023-036>040-048>070-290600-
SOUTHEAST SOUTH DAKOTA

CITY           SKY/WX    TMP DP  RH WIND       PRES   REMARKS
SIOUX FALLS    CLEAR     57  54  89 CALM      30.22F
HURON          CLEAR     57  52  83 CALM      30.22S
CHAMBERLAIN    CLEAR     60  51  73 E5        30.24S
MITCHELL       CLEAR     60  54  80 CALM      30.23S
YANKTON        CLEAR     61  54  77 N6        30.22S
$$

ABBREVIATIONS USED IN REMARKS
   TC - TEMPERATURE IN CELSIUS
  WCI - WIND CHILL INDEX
   HX - HEAT INDEX
  VSB - VISIBILITY



USA.gov is the U.S. government's official web portal to all federal, state and local government web resources and services.